Weather in Klimkovice

Czech Republic     49°47′12″N   18°07′43″E
В апреле 2022 года жителям России запретили посещать сайт meteo.paraplan.net по решению Генеральной прокуратуры. Аудитория сайта уменьшилась в 10 раз. Владельцы сайта не видят смысла в поддержке погодного сервера в таких условиях. Сайт будет закрыт в октябре.
temp.,
°C
wind,
m/s
gust,
m/s
humid.,
%
clouds,
%
prec.,
mm/h
press.,
hPa
HPBL,
m
3 october, mon
mon323:00+10wsw35925 1.2 1015132
02:00+8sw359414 1.4 1017128
05:00+7sw369430 0.1 1017164
08:00+8wsw378733 0.2 1018245
11:00+10nw4980100 0.4 1018929
14:00+10wnw6117997 0.6 1019798
17:00+10nw51077100 0.1 1019816
20:00+10wnw41074100 0.1 1020533
4 october, tue
tue423:00+10w3875100 0.1 1020336
02:00+8wsw358695 0.5 1020140
05:00+9wsw2386100 0.3 1019117
08:00+10wsw258762 0.9 1020192
11:00+11nnw587743 0.9 1022754
14:00+12n2467100 1.1 1022655
17:00+13e126792 0.0 1022338
20:00+9se11828 0.0 102410
5 october, wed
wed523:00+8sse228529 0.0 102513
02:00+7ssw22868 0.0 102532
05:00+7ssw3488100 0.0 102462
08:00+9ssw258290 0.0 1025130
11:00+15sw5960100 0.0 1023612
14:00+18sw6951100 0.0 1022898
17:00+16ssw5864100 0.0 1022437
20:00+11ssw3579100 0.0 1023115
6 october, thu
thu623:00+12ssw3677100 0.0 1024123
02:00+10sw358396 0.0 102488
05:00+10ssw488596 0.0 1025153
08:00+11ssw388253 0.0 1026192
11:00+16wsw566450 0.0 1027517
14:00+20sw125412 0.0 10281112
17:00+15n366798 0.0 1029358
20:00+14ene227141 0.0 103174
7 october, fri
fri723:00+13ese117358 0.0 103222
02:00+10ene118266 0.0 103113
05:00+9ne118710 0.0 103016
08:00+9ne118547 0.0 102924
11:00+15wsw11650 0.0 1028393
14:00+19wsw255813 0.0 10251027
17:00+19sw24652 0.0 1023190
20:00+13ssw227924 0.0 102329